Location: Betzi
(47.2343°N, 9.5260°E)
Time: 17:44:17
(UTC+00:00)

CZ-2D R/B - Pass Details

Date: 27 May 2022
Orbit: 790 x 845 km, 98.7° (Epoch: 06 July)

Event Time Altitude Azimuth Distance (km) Brightness Sun altitude
Rises 02:10:46 0° 6° (N) 3,382 6.3 -11.4°
Reaches altitude 10° 02:13:23 10° 356° (N) 2,436 5.3 -11.1°
Maximum altitude 02:18:01 30° 297° (WNW) 1,426 3.3 -10.5°
Enters shadow 02:22:13 12° 240° (WSW) 2,278 3.8 -10.1°
